Location: Çatalark Yaylas?
(38.9859°N, 31.8373°E)
Time: 04:48:29
(UTC+00:00)

Daily predictions for brighter satellites

Satellite Brightness Start Highest point End
(mag) Time Altitude Azimuth Time Altitude Azimuth Time Altitude Azimuth
Cosmos 405 Rocket 3.0 00:03:12 41° E 00:03:12 41° E 00:05:54 10° NNE
SJ 16-02 1.3 00:03:17 51° SSE 00:04:12 71° ESE 00:08:26 10° NNE
Cosmos 921 Rocket 3.2 00:04:35 47° W 00:05:08 50° WNW 00:09:14 10° N
COSMOS 2455 4.0 00:04:46 22° W 00:07:35 33° NW 00:12:57 10° N
IDEFIX/ARIANE 42P 3.1 00:09:49 10° N 00:14:45 44° WNW 00:16:31 32° WSW
NOSS 3-1 (A) 4.4 00:14:35 18° W 00:16:57 27° NW 00:21:32 10° NNE
Cosmos 540 Rocket 3.7 00:12:16 10° NNW 00:17:20 67° ENE 00:22:23 10° SSE
Cosmos 1674 Rocket 3.6 00:16:41 36° S 00:18:25 76° E 00:22:51 10° N
Meteor 1-11 4.2 00:18:08 35° SSW 00:20:28 66° W 00:26:05 10° N
Cosmos 1697 Rocket 4.2 00:17:25 13° SSE 00:21:33 29° ESE 00:26:18 10° NE
ADEOS II 3.5 00:17:48 10° NNE 00:22:29 32° E 00:26:58 11° SSE
USA 234 4.2 00:19:00 10° ENE 00:24:57 36° SE 00:28:56 19° S
SL-19 R/B 3.9 00:27:01 55° WSW 00:27:12 56° WSW 00:30:27 10° NNW
Cosmos 1656 3.6 00:29:37 31° SW 00:32:14 69° WNW 00:37:45 10° NNE
Resurs 1-4 Rocket 2.4 00:27:18 10° NNE 00:32:32 64° ESE 00:36:11 20° S
Cosmos 2251 Rocket 3.7 00:30:37 25° S 00:33:47 70° ESE 00:39:07 10° NNE
Okean 1 Rocket 3.6 00:32:46 10° N 00:37:01 55° E 00:41:14 10° SSE
Cosmos 1605 Rocket 3.9 00:31:25 10° N 00:37:42 81° W 00:43:05 14° S
H-2A R/B 2.5 00:33:26 10° NNE 00:38:37 59° E 00:42:35 16° S
Meteor 2-21 4.4 00:35:34 21° S 00:39:51 85° W 00:46:06 10° N
Cosmos 332 Rocket 4.3 00:37:24 20° S 00:40:34 53° ESE 00:45:11 10° NNE
Cosmos 1346 Rocket 4.4 00:40:44 17° W 00:41:06 17° WNW 00:43:35 10° NNW
H-2A R/B 4.1 00:39:48 10° SE 00:43:11 31° ENE 00:46:39 10° N
Cosmos 371 Rocket 4.4 00:44:35 22° WSW 00:46:42 31° WNW 00:51:00 10° N
Cosmos 1782 4.5 00:44:26 10° NNE 00:47:32 28° ENE 00:50:35 10° SE
Cosmos 1763 Rocket 3.5 00:43:57 10° NNW 00:48:51 53° WSW 00:52:46 16° S
Cosmos 2297 Rocket 2.8 00:49:34 10° NNW 00:55:10 59° ENE 01:00:43 10° SE
Lacrosse 4 Rocket 3.4 00:55:19 10° WNW 00:56:30 13° W 00:56:30 13° W
OPS 8737 4.0 00:54:49 10° NW 00:57:55 87° SW 01:01:09 10° SSE
Cosmos 676 Rocket 4.2 00:55:04 15° S 00:59:19 69° ESE 01:04:30 10° NNE
Cosmos 1025 Rocket 3.7 00:57:57 23° SW 01:00:04 39° WNW 01:04:10 10° N
MOZ.5/SAFIR/RUBIN 5/SL-8 4.0 00:57:19 18° SSW 01:00:22 46° W 01:04:49 10° NNW
BREEZE-M DEB (TANK) 2.5 00:52:35 10° WNW 01:00:43 83° SW 01:03:21 10° SE
ADEOS Rocket 4.4 00:57:37 10° NNW 01:02:14 22° WNW 01:05:49 13° WSW
ATLAS 3B R/B 3.4 00:58:05 13° SSW 01:04:49 58° ESE 01:12:29 10° NE
CZ-2D R/B 2.2 00:59:36 10° N 01:05:02 73° WNW 01:09:29 15° SSW
Cosmos 1980 Rocket 3.8 01:01:34 10° SSE 01:06:25 30° ESE 01:11:18 10° NE
DMSP B5D2-2 4.4 01:04:30 13° S 01:08:58 46° W 01:14:01 10° NNW
NOSS 2-2 (C) 3.7 01:06:18 10° NW 01:10:25 69° WSW 01:16:13 10° SSE
ALOS 2.6 01:13:12 10° N 01:17:34 47° WNW 01:21:07 15° SW
ARGOS 3.6 01:13:54 10° NNE 01:19:14 64° ESE 01:24:34 10° S
Cosmos 468 Rocket 4.0 01:14:41 10° NNW 01:19:42 59° WSW 01:24:42 10° S
Spot 2 4.0 01:15:53 10° SSE 01:20:12 85° ENE 01:24:20 10° NNW
Cosmos 2123 Rocket 4.3 01:18:28 10° S 01:24:45 74° E 01:31:04 10° N
Cosmos 2292 Rocket 3.7 01:26:07 16° SW 01:27:49 28° WNW 01:30:37 10° NNW
Cosmos 1455 Rocket 3.0 01:25:56 10° NNW 01:30:15 74° W 01:34:34 10° S
Cosmos 1727 Rocket 4.3 01:28:01 10° SSW 01:34:03 51° W 01:40:06 10° N
SeaSat 1 2.5 01:29:24 10° SSE 01:34:12 57° WSW 01:39:03 10° NNW
Envisat 4.3 01:30:07 10° NNW 01:34:13 25° WNW 01:38:16 10° WSW
CENTAUR R/B 3.7 01:26:01 10° NNW 01:34:40 78° NE 01:44:15 10° SE
Cosmos 2084 Rocket 3.9 01:32:00 13° WSW 01:35:22 43° NW 01:39:15 10° NNE
USA 229 DEB 3.6 01:30:52 12° SW 01:36:19 66° NW 01:42:49 10° NNE
USA 229 3.6 01:30:53 12° SW 01:36:21 68° NW 01:42:52 10° NNE
Okean 2 Rocket 4.1 01:33:29 10° NNW 01:37:06 26° W 01:40:43 10° SW
Cosmos 546 4.5 01:39:03 10° WNW 01:42:48 67° SW 01:46:31 10° SE
Gbstr 26 Del rocket 4.5 01:37:29 10° WSW 01:44:23 76° NW 01:52:14 10° NE
SL-16 R/B 3.0 01:39:38 10° SSE 01:45:46 69° ENE 01:51:54 10° N
Cosmos 968 Rocket 3.6 01:42:06 10° SSW 01:47:18 70° WNW 01:52:33 10° NNE
Cosmos 292 Rocket 4.0 01:44:10 10° SSW 01:48:49 54° WNW 01:53:29 10° N
Cosmos 1459 Rocket 4.0 01:43:52 10° NNW 01:50:00 69° W 01:56:13 10° S
Cosmos 2173 Rocket 4.1 01:44:43 10° NNW 01:50:56 63° W 01:57:03 10° S
Cosmos 1862 3.8 01:51:28 10° SW 01:54:43 35° WNW 01:58:00 10° N
Cosmos 841 Rocket 3.5 01:50:03 10° NNW 01:55:09 59° WSW 02:00:12 10° S
